TimeHST,TemperatureF,Dew PointF,Humidity,Sea Level PressureIn,VisibilityMPH,Wind Direction,Wind SpeedMPH,Gust SpeedMPH,PrecipitationIn,Events,Conditions,WindDirDegrees,DateUTC
12:54 AM,73.9,71.1,91,30.08,10.0,Calm,Calm,-,N/A,,Clear,0,2012-10-11 10:54:00
1:54 AM,73.0,71.1,93,30.06,10.0,ENE,4.6,-,N/A,,Clear,70,2012-10-11 11:54:00
2:54 AM,73.0,70.0,90,30.05,10.0,NE,12.7,-,N/A,,Clear,40,2012-10-11 12:54:00
3:54 AM,73.0,66.9,81,30.06,10.0,NE,9.2,-,N/A,,Clear,40,2012-10-11 13:54:00
4:54 AM,75.0,70.0,84,30.06,10.0,NE,13.8,-,N/A,,Clear,40,2012-10-11 14:54:00
5:54 AM,75.0,72.0,90,30.09,10.0,ENE,10.4,18.4,0.00,,Overcast,70,2012-10-11 15:54:00
6:54 AM,75.0,70.0,84,30.10,10.0,ENE,9.2,-,N/A,,Scattered Clouds,70,2012-10-11 16:54:00
7:54 AM,79.0,66.9,66,30.10,10.0,ENE,16.1,25.3,N/A,,Partly Cloudy,70,2012-10-11 17:54:00
8:54 AM,82.9,68.0,60,30.11,10.0,ENE,17.3,21.9,N/A,,Partly Cloudy,70,2012-10-11 18:54:00
9:54 AM,84.0,71.1,65,30.10,10.0,ENE,16.1,20.7,N/A,,Clear,60,2012-10-11 19:54:00
10:54 AM,86.0,71.1,61,30.07,10.0,ENE,20.7,25.3,N/A,,Partly Cloudy,60,2012-10-11 20:54:00
11:54 AM,86.0,71.1,61,30.04,10.0,ENE,21.9,28.8,N/A,,Partly Cloudy,70,2012-10-11 21:54:00
12:54 PM,87.1,70.0,57,30.01,10.0,NE,24.2,29.9,N/A,,Partly Cloudy,40,2012-10-11 22:54:00
1:54 PM,84.9,72.0,65,29.99,10.0,NE,25.3,34.5,N/A,,Partly Cloudy,50,2012-10-11 23:54:00
2:54 PM,86.0,71.1,61,29.98,10.0,NE,23.0,35.7,N/A,,Partly Cloudy,50,2012-10-12 00:54:00
3:54 PM,84.0,69.1,61,29.98,10.0,NE,23.0,34.5,N/A,,Partly Cloudy,50,2012-10-12 01:54:00
4:54 PM,82.0,69.1,65,30.00,10.0,ENE,21.9,29.9,N/A,,Partly Cloudy,70,2012-10-12 02:54:00
5:54 PM,78.1,71.1,79,30.01,10.0,ENE,19.6,31.1,N/A,,Partly Cloudy,60,2012-10-12 03:54:00
6:54 PM,77.0,70.0,79,30.05,10.0,NE,13.8,-,N/A,,Partly Cloudy,50,2012-10-12 04:54:00
7:54 PM,77.0,70.0,79,30.08,10.0,NE,18.4,-,N/A,,Partly Cloudy,50,2012-10-12 05:54:00
8:54 PM,77.0,66.9,71,30.11,10.0,NE,20.7,25.3,N/A,,Partly Cloudy,40,2012-10-12 06:54:00
9:54 PM,75.9,69.1,79,30.12,10.0,NE,19.6,-,N/A,,Partly Cloudy,40,2012-10-12 07:54:00
10:54 PM,75.9,70.0,82,30.12,10.0,NE,18.4,23.0,N/A,,Clear,40,2012-10-12 08:54:00
11:54 PM,75.9,70.0,82,30.12,10.0,NE,15.0,-,N/A,,Clear,40,2012-10-12 09:54:00